Regional Weather Roundup
Issued by NWS

Home | Current Version | Previous Version | Graphics & Text | Print | Product List | Glossary On
Versions: 1 2 3 4 5 6 7 8 9 10 11 12 13 14 15 16 17 18 19 20 21 22 23 24 25 26 27 28 29 30 31 32 33 34 35 36 37 38 39 40 41 42 43 44 45 46 47 48 49 50
000
ASUS45 KCYS 290110
RWRWY

WYOMING REGIONAL WEATHER ROUNDUP
NATIONAL WEATHER SERVICE CHEYENNE WY
600 PM MST WED JAN 28 2015

NOTE:  "FAIR" INDICATES FEW OR NO CLOUDS BELOW 12,000 FEET
WITH NO SIGNIFICANT WEATHER AND/OR OBSTRUCTIONS TO VISIBILITY.

WYZ001-290200-
YELLOWSTONE NATIONAL PARK

CITY           SKY/WX    TMP DP  RH WIND       PRES   REMARKS
LK YELLOWSTONE   N/A     27  24  89 CALM      30.32R
W YELLOWSTONE  NOT AVBL

$$
WYZ002>013-054>058-071-098>099-290200-
NORTHERN WYOMING

CITY           SKY/WX    TMP DP  RH WIND       PRES   REMARKS
JACKSON        PTCLDY    39  28  65 CALM      30.29R
CODY           MOCLDY    39  27  60 NW5       30.27R
GREYBULL       FOG       34  34 100 S5        30.25R VSB 1/4 WCI  30
WORLAND        CLOUDY    36  33  89 SW3       30.25R
SHERIDAN       CLOUDY    42  31  64 NW12      30.28R
BUFFALO        CLOUDY    39  30  70 N12       30.26R WCI  32
GILLETTE       FAIR      36  29  75 N12       30.23R WCI  28
HULETT           N/A    N/A N/A N/A MISG        N/A
NEWCASTLE      FAIR      37  30  75 NW14G22   30.17R WCI  29

$$
WYZ014>020-022>026-101>103-290200-
CENTRAL WYOMING

CITY           SKY/WX    TMP DP  RH WIND       PRES   REMARKS
BIG PINEY      FAIR      33  26  75 N14       30.27R WCI  23
PINEDALE       CLOUDY    32  30  93 W10       30.27R WCI  24
DUBOIS         FAIR      34  27  75 NW9       30.25R WCI  26
LANDER         CLOUDY    40  32  73 N5        30.24R
RIVERTON       CLOUDY    40  31  70 N6        30.26R
CASPER         CLOUDY    38  32  79 E5        30.24R WCI  34
DOUGLAS        CLOUDY    41  34  76 NW8       30.23R

$$
WYZ021-027>030-104>119-290200-
SOUTHERN WYOMING

CITY           SKY/WX    TMP DP  RH WIND       PRES   REMARKS
EVANSTON       FAIR      35  30  82 W8        30.31R WCI  29
KEMMERER       FAIR      32  32 100 W10       30.30S WCI  24
FORT BRIDGER   FAIR      35  33  91 W9        30.33R WCI  28
ROCK SPRINGS   CLOUDY    37  30  75 W13       30.27R WCI  29
DIXON          CLOUDY    37  32  81 CALM      30.30R
RAWLINS        CLOUDY    38  31  76 W8        30.25R WCI  32
SARATOGA       CLOUDY    37  32  81 W9        30.27R WCI  31
LARAMIE        CLOUDY    35  29  78 NW9       30.22R WCI  28
CHEYENNE       CLOUDY    38  32  79 N17G25    30.20R WCI  28
TORRINGTON     FAIR      42  35  76 W13       30.15R
PINE BLUFFS    CLOUDY    39  32  75 NW10      30.19R WCI  32

$$


USA.gov is the U.S. government's official web portal to all federal, state and local government web resources and services.